Regional Weather Roundup
Issued by NWS

Home | Current Version | Previous Version | Text Only | Print | Product List | Glossary On
Versions: 1 2 3 4 5 6 7 8 9 10 11 12 13 14 15 16 17 18 19 20 21 22 23 24 25 26 27 28 29 30 31 32 33 34 35 36 37 38 39 40 41 42 43 44 45 46 47 48 49 50
000
ASUS43 KTOP 181408
RWRKS

WEATHER ROUNDUP FOR KANSAS
NATIONAL WEATHER SERVICE GOODLAND KS
800 AM CST THU JAN 18 2018

NOTE:  "FAIR" INDICATES FEW OR NO CLOUDS BELOW 12,000 FEET WITH NO
SIGNIFICANT WEATHER AND/OR OBSTRUCTIONS TO VISIBILITY.

KSZ001>006-013>018-027>032-041>047-181500-
NORTHWEST KANSAS

CITY           SKY/WX    TMP DP  RH WIND       PRES   REMARKS
GOODLAND       PTCLDY    25  14  63 SW12      30.08S WCI  14
HAYS           CLOUDY    12   8  84 SW6       30.14F
HILL CITY      CLOUDY    18  13  80 W6        30.11S
RUSSELL        CLOUDY    17  11  77 SW9       30.12F
$$

KSZ061>065-074>080-084>089-181500-
SOUTHWEST KANSAS

CITY           SKY/WX    TMP DP  RH WIND       PRES   REMARKS
DODGE CITY     CLOUDY    16   7  67 SW9       30.15F
ELKHART        CLEAR     28  13  53 W12       30.15F WCI  18
GARDEN CITY    CLOUDY    10   5  80 W7        30.13F
GREAT BEND     CLOUDY    18   9  68 SW8       30.16F
LIBERAL        CLOUDY    11   6  81 SW9       30.18F
PRATT          CLOUDY    17   4  56 SW9       30.19F
$$

KSZ066>073-081>083-090>101-181500-
SOUTHEAST KANSAS

CITY           SKY/WX    TMP DP  RH WIND       PRES   REMARKS
CHANUTE          N/A    N/A N/A N/A MISG      30.33F
COFFEYVILLE    CLOUDY    18  10  71 S9        30.38F
HUTCHINSON     CLOUDY    14   6  70 S6        30.22F
MEDICINE LODGE   N/A     18   4  54 S3        30.25S
NEWTON         CLOUDY    18   8  65 S15       30.23F WCI   4
PARSONS        CLOUDY    17   9  70 S7        30.37S
WICHITA INTL   CLOUDY    18   7  62 S10       30.26F WCI   6
WICHITA JABRA  CLOUDY    20   7  57 S14       30.25F WCI   7
WICHITA MCCONL CLOUDY    18   5  55 SW12      30.26F WCI   6
WINFIELD       CLOUDY    20   7  57 S9        30.32S
$$

KSZ007>012-019>026-033>040-048>060-102>105-181500-
NORTHEAST KANSAS

CITY           SKY/WX    TMP DP  RH WIND       PRES   REMARKS
CONCORDIA      CLOUDY    16   7  67 S7        30.14F
EMPORIA        CLOUDY    21   9  59 S8        30.25F
LAWRENCE       CLOUDY    17   8  67 SE7       30.26F
MANHATTAN      CLOUDY    20   9  62 SW9       30.20F
MARYSVILLE     CLOUDY    18   9  68 S6        30.17R
OLATHE IND     CLOUDY    20   8  60 S13       30.28S WCI   7
OLATHE EXE     CLOUDY    18   7  62 S10       30.26F WCI   6
SALINA         CLOUDY    19   9  65 S8        30.19F
TOPEKA BILLARD CLOUDY    17   9  70 VRB3      30.24F
TOPEKA FORBES  CLOUDY    18   9  68 S9        30.22F
$$



USA.gov is the U.S. government's official web portal to all federal, state and local government web resources and services.